Tracking 20241 objects as of 25-Jan-2020
HD Live streaming from Space Station
objects crossing your sky now

FLOCK 4P 3

Track FLOCK 4P 3 now!
10-day predictions
FLOCK 4P 3 is classified as:


NORAD ID: 44812
Int'l Code: 2019-081J
Perigee: 505.2 km
Apogee: 523.5 km
Inclination: 97.5 °
Period: 94.8 minutes
Semi major axis: 6885 km
RCS: Unknown
Launch date: November 27, 2019
Source: United States (US)
Launch site: SRIHARIKOTA (SRI)
aabbcc
Your satellite tracking list
Your tracking list is empty




NASA's NSSDC Master Catalog

Two Line Element Set (TLE):
1 44812U 19081J   20024.41917908  .00000730  00000-0  37578-4 0  9999
2 44812  97.5168  86.2346 0013332  41.0802 319.1434 15.19547563  8844
Source of the keplerian elements: AFSPC